Hourly Weather Roundup
Issued by NWS Central Illinois

Home | Current Version | Previous Version | Text Only | Print | Product List | Glossary On
Versions: 1 2 3 4 5 6 7 8 9 10 11 12 13 14 15 16 17 18 19 20 21 22 23 24 25 26 27 28 29 30 31 32 33 34 35 36 37 38 39 40 41 42 43 44 45 46 47 48 49 50
000
NZUS43 KILX 250310
HWRILX

Area Weather Roundup
National Weather Service Lincoln IL
1000 PM CDT TUE APR 24 2018

NOTE:  "FAIR" indicates few or no clouds below 12,000 feet, with
       no sigificant weather and/or obstructions to visibility.


CITY           SKY/WX    TMP DP  RH WIND       PRES   REMARKS
Bloomington    FAIR      54  49  83 E5        30.01R
Champaign      FAIR      53  49  86 NE3       30.00R
Danville       FAIR      51  50  97 N6        29.97R
Decatur        FAIR      52  51  97 CALM      29.99R
Effingham      FAIR      52  52 100 CALM      30.01S
Flora          FAIR      54  51  92 CALM      29.99S
Galesburg      FAIR      58  35  42 CALM      30.02R
Jacksonville   MOCLDY    56  33  42 NW6       30.00R
Lacon          FAIR      60  45  58 E8        29.99R
Lawrenceville  CLOUDY    57  55  93 MISG      29.98S
Litchfield     CLEAR     53  50  91 S3        30.00R
$$


CITY           SKY/WX    TMP DP  RH WIND       PRES   REMARKS
Lincoln        FAIR      56  51  86 CALM      29.99R
Macomb         PTCLDY    52  33  48 NW8       30.03S
Mattoon        FAIR      53  51  93 NW3       29.98R
Mt Carmel AP   CLOUDY    55  54  97 CALM      29.99R FOG
Olney-Noble AP FAIR      53  51  92 NW3       29.99F
Paris AP       FAIR      55  51  86 CALM      29.99S
Peoria         FAIR      64  29  26 N5        29.99R
Pontiac        FAIR      51  49  93 E6        30.01R
Rantoul        FAIR      55  52  90 CALM      30.00R
Robinson       CLOUDY    55  54  97 CALM      29.99R
Springfield    FAIR      59  43  55 CALM      29.99R
Taylorville    FAIR      56  52  86 S3        30.00R
$$

...REGIONAL REPORTS...


CITY           SKY/WX    TMP DP  RH WIND       PRES   REMARKS
Chicago O`Hare FAIR      51  45  79 NE13      30.02R
Kankakee       FAIR      49  46  88 NE3       30.01S
La Salle       FAIR      61  48  62 E8        30.01R
Moline         FAIR      60  34  37 W3        30.00R
Mount Sterling CLOUDY    58  32  37 NW6       30.01S
Mount Vernon   FAIR      50  49  96 CALM      30.00S FOG
Pittsfield     CLOUDY    61  33  35 NW5       30.03R
Quincy         CLOUDY    60  29  30 NW6       30.02R
Rockford       FAIR      57  46  66 E6        30.02R
$$


CITY           SKY/WX    TMP DP  RH WIND       PRES   REMARKS
Burlington     CLOUDY    63  31  30 NW8       30.01R
Cedar Rapids   MOCLDY    61  45  55 N12       30.06R
Des Moines     CLOUDY    58  42  55 N15G22    30.14R
Kirksville     CLOUDY    63  39  41 N9        30.07R
Ottumwa        CLOUDY    61  45  55 N13       30.07R
St Louis       PTCLDY    59  47  64 SW3       30.00R
$$


CITY           SKY/WX    TMP DP  RH WIND       PRES   REMARKS
Terre Haute    CLOUDY    56  52  86 CALM      29.98R
Evansville     CLOUDY    56  56 100 NW6       29.99S
Indianapolis   CLOUDY    54  52  93 N6        29.95F
Lafayette      CLOUDY    56  51  84 N7        29.98R
Madison        CLOUDY    55  35  47 NE3       30.03R
Milwaukee      FAIR      45  41  86 N12       30.05R
$$





USA.gov is the U.S. government's official web portal to all federal, state and local government web resources and services.